TimeIST,TemperatureF,Dew PointF,Humidity,Sea Level PressureIn,VisibilityMPH,Wind Direction,Wind SpeedMPH,Gust SpeedMPH,PrecipitationIn,Events,Conditions,WindDirDegrees,DateUTC
12:00 AM,71.6,53.6,53,29.95,1.2,NNE,5.8,-,N/A,,Haze,30,2012-11-01 18:30:00
1:00 AM,69.8,53.6,56,29.95,1.6,ENE,4.6,-,N/A,,Haze,70,2012-11-01 19:30:00
2:00 AM,68.0,53.6,60,29.95,1.6,Calm,Calm,-,N/A,,Haze,0,2012-11-01 20:30:00
2:30 AM,68,50,43,29.89,1,Calm,Calm,,,,Smoke,,2012-11-01 21:00:00
3:00 AM,68.0,55.4,64,29.95,1.0,Calm,Calm,-,N/A,,Smoke,0,2012-11-01 21:30:00
5:00 AM,66.2,55.4,68,29.95,1.0,Calm,Calm,-,N/A,,Smoke,0,2012-11-01 23:30:00
5:30 AM,67,51,45,29.90,1,Calm,Calm,,,,Smoke,,2012-11-02 00:00:00
6:00 AM,64.4,53.6,68,29.95,1.0,Calm,Calm,-,N/A,,Smoke,0,2012-11-02 00:30:00
7:00 AM,64.4,55.4,73,29.98,0.6,Calm,Calm,-,N/A,,Partly Cloudy,0,2012-11-02 01:30:00
8:00 AM,66.2,57.2,73,29.98,0.5,Calm,Calm,-,N/A,,Partly Cloudy,0,2012-11-02 02:30:00
8:30 AM,69,60,65,29.94,0,Calm,Calm,,,,Mist,,2012-11-02 03:00:00
9:00 AM,73.4,57.2,57,30.01,0.5,Calm,Calm,-,N/A,,Mist,0,2012-11-02 03:30:00
10:00 AM,77.0,57.2,50,30.01,0.5,East,5.8,-,N/A,,Mist,80,2012-11-02 04:30:00
11:00 AM,78.8,59.0,51,30.01,0.6,NE,4.6,-,N/A,,Mist,50,2012-11-02 05:30:00
11:30 AM,82,52,25,29.88,1,Calm,Calm,,,,Mist,,2012-11-02 06:00:00
2:00 PM,84.2,59.0,42,29.92,1.2,East,6.9,-,N/A,,Smoke,90,2012-11-02 08:30:00
2:30 PM,84,49,19,29.84,1,,5.8,,,,Smoke,,2012-11-02 09:00:00
3:00 PM,84.2,51.8,33,29.89,1.2,NE,8.1,-,N/A,,Smoke,50,2012-11-02 09:30:00
3:30 PM,84.2,51.8,33,29.89,1.2,Variable,5.8,-,N/A,,Smoke,0,2012-11-02 10:00:00
4:00 PM,84.2,51.8,33,29.89,1.2,ENE,4.6,-,N/A,,Smoke,60,2012-11-02 10:30:00
5:30 PM,79,50,26,29.81,1,Calm,Calm,,,,Smoke,,2012-11-02 12:00:00
7:00 PM,75.2,50.0,41,29.89,0.6,Calm,Calm,-,N/A,,Smoke,0,2012-11-02 13:30:00
8:00 PM,69.8,50.0,49,29.92,-9999.0,Calm,Calm,-,N/A,,Smoke,0,2012-11-02 14:30:00
9:00 PM,71.6,50.0,46,29.92,1.2,Calm,Calm,-,N/A,,Smoke,0,2012-11-02 15:30:00
10:00 PM,69.8,50.0,49,29.92,1.2,Calm,Calm,-,N/A,,Smoke,0,2012-11-02 16:30:00
11:00 PM,68.0,50.0,52,29.92,1.2,Calm,Calm,-,N/A,,Smoke,0,2012-11-02 17:30:00
11:30 PM,67,51,45,29.87,1,Calm,Calm,,,,Smoke,,2012-11-02 18:00:00